| time (UTC) | temp F | wind direction | speed MPH | gust MPH | rain 1hr in | rain 24hr in | rain mn in | humidity % | barometer mb |
| 20260902064931 | 59 | 112 | 1.0 | 4.0 | 0.00 | 0.00 | 0.00 | 91 | 1030.5 |
| 20260902064832 | 59 | 112 | 0.0 | 0.0 | 0.00 | 0.00 | 0.00 | 91 | 1030.5 |
| 20260902063931 | 58 | 112 | 2.0 | 4.0 | 0.00 | 0.00 | 0.00 | 91 | 1030.5 |
| 20260902063833 | 58 | 112 | 3.0 | 4.0 | 0.00 | 0.00 | 0.00 | 91 | 1030.6 |
| 20260902062931 | 58 | 112 | 2.0 | 4.0 | 0.00 | 0.00 | 0.00 | 92 | 1030.5 |
| 20260902061932 | 58 | 122 | 2.0 | 3.0 | 0.00 | 0.00 | 0.00 | 92 | 1030.4 |
| 20260902061833 | 58 | 135 | 2.0 | 3.0 | 0.00 | 0.00 | 0.00 | 92 | 1030.4 |
| 20260902060835 | 57 | 135 | 0.0 | 1.0 | 0.00 | 0.00 | 0.00 | 93 | 1030.4 |
| 20260902055832 | 57 | 135 | 1.0 | 2.0 | 0.00 | 0.00 | 0.00 | 93 | 1030.4 |
| 20260902054832 | 57 | 112 | 2.0 | 2.0 | 0.00 | 0.00 | 0.00 | 93 | 1030.3 |
| 20260902052832 | 56 | 135 | 0.0 | 2.0 | 0.00 | 0.00 | 0.00 | 93 | 1030.3 |
| 20260902050732 | 56 | 112 | 0.0 | 1.0 | 0.00 | 0.00 | 0.00 | 92 | 1030.3 |
| 20260902045733 | 56 | 112 | 0.0 | 1.0 | 0.00 | 0.00 | 0.00 | 92 | 1030.3 |
| 20260902045631 | 56 | 112 | 1.0 | 2.0 | 0.00 | 0.00 | 0.00 | 92 | 1030.2 |
| 20260902043633 | 56 | 112 | 1.0 | 2.0 | 0.00 | 0.00 | 0.00 | 92 | 1030.2 |
| 20260902042633 | 56 | 112 | 1.0 | 1.0 | 0.00 | 0.00 | 0.00 | 92 | 1030.3 |
| 20260902041632 | 56 | 112 | 1.0 | 2.0 | 0.00 | 0.00 | 0.00 | 92 | 1030.2 |
| 20260902040731 | 56 | 112 | 0.0 | 0.0 | 0.00 | 0.00 | 0.00 | 92 | 1030.3 |
| 20260902035750 | 57 | 135 | 0.0 | 0.0 | 0.00 | 0.00 | 0.00 | 92 | 1030.2 |
| 20260902033833 | 57 | 135 | 0.0 | 0.0 | 0.00 | 0.00 | 0.00 | 92 | 1030.1 |
| 20260902032832 | 57 | 135 | 0.0 | 0.0 | 0.00 | 0.00 | 0.00 | 92 | 1030.3 |
| 20260902031831 | 57 | 135 | 1.0 | 2.0 | 0.00 | 0.00 | 0.00 | 92 | 1030.2 |
| 20260902030833 | 57 | 135 | 1.0 | 2.0 | 0.00 | 0.00 | 0.00 | 92 | 1030.4 |
| 20260902025832 | 57 | 115 | 1.0 | 2.0 | 0.00 | 0.00 | 0.00 | 92 | 1030.3 |
| 20260902025731 | 57 | 112 | 1.0 | 2.0 | 0.00 | 0.00 | 0.00 | 92 | 1030.4 |
| 20260902024732 | 57 | 112 | 0.0 | 0.0 | 0.00 | 0.00 | 0.00 | 92 | 1030.4 |
| 20260902023734 | 56 | 112 | 0.0 | 0.0 | 0.00 | 0.00 | 0.00 | 92 | 1030.3 |
| 20260902023633 | 56 | 112 | 0.0 | 0.0 | 0.00 | 0.00 | 0.00 | 92 | 1030.4 |
| 20260902022631 | 56 | 112 | 1.0 | 1.0 | 0.00 | 0.00 | 0.00 | 92 | 1030.3 |
| 20260902021537 | 57 | 112 | 0.0 | 0.0 | 0.00 | 0.00 | 0.00 | 92 | 1030.5 |
| 20260902021432 | 57 | 112 | 0.0 | 0.0 | 0.00 | 0.00 | 0.00 | 92 | 1030.4 |
| 20260902020531 | 57 | 112 | 0.0 | 0.0 | 0.00 | 0.00 | 0.00 | 92 | 1030.4 |
| 20260902015532 | 57 | 112 | 0.0 | 0.0 | 0.00 | 0.00 | 0.00 | 92 | 1030.4 |
| 20260902015433 | 57 | 112 | 0.0 | 0.0 | 0.00 | 0.00 | 0.00 | 92 | 1030.5 |
| 20260902014433 | 57 | 112 | 0.0 | 1.0 | 0.00 | 0.00 | 0.00 | 92 | 1030.8 |
| 20260902013433 | 57 | 115 | 1.0 | 2.0 | 0.00 | 0.00 | 0.00 | 92 | 1030.6 |
| 20260902013334 | 57 | 135 | 1.0 | 1.0 | 0.00 | 0.00 | 0.00 | 92 | 1030.6 |
| 20260902013234 | 57 | 135 | 0.0 | 0.0 | 0.00 | 0.00 | 0.00 | 92 | 1030.6 |
| 20260902011333 | 57 | 135 | 0.0 | 0.0 | 0.00 | 0.00 | 0.00 | 93 | 1030.5 |
| 20260902011248 | 57 | 135 | 0.0 | 0.0 | 0.00 | 0.00 | 0.00 | 93 | 1030.5 |
| 20260902010233 | 57 | 135 | 1.0 | 1.0 | 0.00 | 0.00 | 0.00 | 93 | 1030.4 |
| 20260902005231 | 57 | 135 | 1.0 | 2.0 | 0.00 | 0.00 | 0.00 | 93 | 1030.4 |
| 20260902003233 | 56 | 112 | 0.0 | 0.0 | 0.00 | 0.00 | 0.00 | 93 | 1030.4 |
| 20260902002332 | 56 | 112 | 0.0 | 0.0 | 0.00 | 0.00 | 0.00 | 94 | 1030.5 |
| 20260902001333 | 56 | 112 | 0.0 | 0.0 | 0.00 | 0.00 | 0.00 | 94 | 1030.6 |
| 20260902001233 | 56 | 112 | 0.0 | 0.0 | 0.00 | 0.00 | 0.00 | 94 | 1030.5 |
| 20260902001132 | 56 | 112 | 0.0 | 0.0 | 0.00 | 0.00 | 0.00 | 94 | 1030.5 |
| 20260902000131 | 56 | 112 | 0.0 | 0.0 | 0.00 | 0.00 | 0.00 | 94 | 1030.7 |
| 20260901235132 | 56 | 112 | 0.0 | 0.0 | 0.00 | 0.00 | 0.00 | 94 | 1030.6 |
| 20260901234132 | 55 | 180 | 0.0 | 0.0 | 0.00 | 0.00 | 0.00 | 94 | 1030.7 |
| 20260901232233 | 55 | 180 | 0.0 | 0.0 | 0.00 | 0.00 | 0.00 | 94 | 1030.9 |
| 20260901231231 | 55 | 180 | 0.0 | 0.0 | 0.00 | 0.00 | 0.00 | 94 | 1030.9 |
| 20260901225232 | 55 | 180 | 0.0 | 0.0 | 0.00 | 0.00 | 0.00 | 94 | 1030.8 |
| 20260901224331 | 55 | 180 | 0.0 | 0.0 | 0.00 | 0.00 | 0.00 | 93 | 1030.8 |
| 20260901223334 | 55 | 180 | 0.0 | 0.0 | 0.00 | 0.00 | 0.00 | 93 | 1030.8 |
| 20260901222432 | 55 | 180 | 0.0 | 0.0 | 0.00 | 0.00 | 0.00 | 93 | 1030.9 |
| 20260901221434 | 55 | 180 | 0.0 | 0.0 | 0.00 | 0.00 | 0.00 | 93 | 1031.1 |
| 20260901220432 | 55 | 180 | 0.0 | 0.0 | 0.00 | 0.00 | 0.00 | 93 | 1031.2 |
| 20260901215435 | 55 | 180 | 0.0 | 0.0 | 0.00 | 0.00 | 0.00 | 93 | 1031.3 |
| 20260901214437 | 55 | 180 | 0.0 | 0.0 | 0.00 | 0.00 | 0.00 | 93 | 1031.2 |
| 20260901211636 | 56 | 180 | 0.0 | 0.0 | 0.00 | 0.00 | 0.00 | 92 | 1031.1 |
| 20260901211537 | 56 | 180 | 0.0 | 0.0 | 0.00 | 0.00 | 0.00 | 92 | 1031.2 |
| 20260901210536 | 56 | 180 | 0.0 | 0.0 | 0.00 | 0.00 | 0.00 | 91 | 1031.2 |
| 20260901205550 | 56 | 180 | 0.0 | 0.0 | 0.00 | 0.00 | 0.00 | 91 | 1031.3 |
| 20260901205437 | 56 | 180 | 0.0 | 0.0 | 0.00 | 0.00 | 0.00 | 91 | 1031.2 |
| 20260901204436 | 56 | 180 | 0.0 | 0.0 | 0.00 | 0.00 | 0.00 | 90 | 1031.1 |
| 20260901202536 | 57 | 180 | 0.0 | 0.0 | 0.00 | 0.00 | 0.00 | 89 | 1030.9 |
| 20260901201537 | 57 | 180 | 0.0 | 0.0 | 0.00 | 0.00 | 0.00 | 88 | 1030.9 |
| 20260901200538 | 58 | 180 | 0.0 | 0.0 | 0.00 | 0.00 | 0.00 | 87 | 1030.8 |
| 20260901195535 | 58 | 180 | 0.0 | 0.0 | 0.00 | 0.00 | 0.00 | 86 | 1030.8 |
| 20260901194538 | 59 | 180 | 0.0 | 0.0 | 0.00 | 0.00 | 0.00 | 85 | 1030.8 |
| 20260901193636 | 59 | 180 | 0.0 | 0.0 | 0.00 | 0.00 | 0.00 | 84 | 1030.8 |
| 20260901192637 | 60 | 180 | 0.0 | 0.0 | 0.00 | 0.00 | 0.00 | 83 | 1030.7 |
| 20260901191734 | 60 | 180 | 0.0 | 0.0 | 0.00 | 0.00 | 0.00 | 82 | 1030.8 |
| 20260901191635 | 60 | 180 | 0.0 | 1.0 | 0.00 | 0.00 | 0.00 | 82 | 1030.8 |
| 20260901190638 | 61 | 180 | 1.0 | 2.0 | 0.00 | 0.00 | 0.00 | 81 | 1030.7 |
| 20260901185637 | 62 | 180 | 1.0 | 2.0 | 0.00 | 0.00 | 0.00 | 78 | 1030.6 |
| 20260901184735 | 63 | 180 | 0.0 | 0.0 | 0.00 | 0.00 | 0.00 | 77 | 1030.6 |
| 20260901183736 | 64 | 180 | 0.0 | 1.0 | 0.00 | 0.00 | 0.00 | 75 | 1030.7 |
| 20260901183653 | 64 | 180 | 0.0 | 0.0 | 0.00 | 0.00 | 0.00 | 75 | 1030.7 |
| 20260901182737 | 65 | 180 | 0.0 | 1.0 | 0.00 | 0.00 | 0.00 | 74 | 1030.7 |
| 20260901181735 | 65 | 180 | 2.0 | 3.0 | 0.00 | 0.00 | 0.00 | 72 | 1030.6 |
| 20260901175736 | 67 | 180 | 2.0 | 4.0 | 0.00 | 0.00 | 0.00 | 68 | 1030.6 |
| 20260901175638 | 67 | 180 | 2.0 | 4.0 | 0.00 | 0.00 | 0.00 | 68 | 1030.5 |
| 20260901175536 | 67 | 180 | 2.0 | 3.0 | 0.00 | 0.00 | 0.00 | 67 | 1030.6 |
| 20260901174537 | 67 | 180 | 3.0 | 5.0 | 0.00 | 0.00 | 0.00 | 67 | 1030.7 |
| 20260901173538 | 68 | 180 | 3.0 | 6.0 | 0.00 | 0.00 | 0.00 | 65 | 1030.5 |
| 20260901172537 | 69 | 180 | 2.0 | 3.0 | 0.00 | 0.00 | 0.00 | 65 | 1030.4 |
| 20260901171536 | 69 | 180 | 2.0 | 3.0 | 0.00 | 0.00 | 0.00 | 63 | 1030.4 |
| 20260901170536 | 70 | 180 | 4.0 | 6.0 | 0.00 | 0.00 | 0.00 | 62 | 1030.4 |
| 20260901165535 | 71 | 168 | 4.0 | 6.0 | 0.00 | 0.00 | 0.00 | 61 | 1030.4 |
| 20260901164536 | 71 | 180 | 3.0 | 5.0 | 0.00 | 0.00 | 0.00 | 60 | 1030.3 |
| 20260901163537 | 71 | 169 | 7.0 | 11.0 | 0.00 | 0.00 | 0.00 | 60 | 1030.3 |
| 20260901162537 | 70 | 171 | 4.0 | 7.0 | 0.00 | 0.00 | 0.00 | 61 | 1030.2 |
| 20260901161537 | 71 | 180 | 4.0 | 7.0 | 0.00 | 0.00 | 0.00 | 60 | 1030.2 |
| 20260901155536 | 72 | 180 | 6.0 | 9.0 | 0.00 | 0.00 | 0.00 | 59 | 1030.2 |
| 20260901153636 | 72 | 180 | 4.0 | 9.0 | 0.00 | 0.00 | 0.00 | 58 | 1030.1 |
| 20260901152636 | 73 | 180 | 4.0 | 9.0 | 0.00 | 0.00 | 0.00 | 58 | 1030.1 |
| 20260901151636 | 72 | 168 | 3.0 | 5.0 | 0.00 | 0.00 | 0.00 | 59 | 1030.1 |
| 20260901151537 | 72 | 178 | 4.0 | 7.0 | 0.00 | 0.00 | 0.00 | 59 | 1030.1 |
| 20260901150535 | 73 | 180 | 4.0 | 8.0 | 0.00 | 0.00 | 0.00 | 59 | 1030.1 |
| 20260901145535 | 72 | 177 | 6.0 | 10.0 | 0.00 | 0.00 | 0.00 | 59 | 1030.0 |
| 20260901144635 | 73 | 151 | 4.0 | 6.0 | 0.00 | 0.00 | 0.00 | 58 | 1029.9 |
| 20260901143634 | 73 | 180 | 4.0 | 9.0 | 0.00 | 0.00 | 0.00 | 59 | 1030.0 |
| 20260901142635 | 73 | 180 | 5.0 | 9.0 | 0.00 | 0.00 | 0.00 | 57 | 1029.8 |
| 20260901141637 | 74 | 180 | 4.0 | 7.0 | 0.00 | 0.00 | 0.00 | 58 | 1030.0 |
| 20260901140635 | 74 | 171 | 4.0 | 8.0 | 0.00 | 0.00 | 0.00 | 57 | 1029.9 |
| 20260901134637 | 75 | 168 | 5.0 | 7.0 | 0.00 | 0.00 | 0.00 | 57 | 1029.9 |
| 20260901133736 | 75 | 176 | 5.0 | 7.0 | 0.00 | 0.00 | 0.00 | 60 | 1030.1 |
| 20260901132736 | 73 | 137 | 6.0 | 10.0 | 0.00 | 0.00 | 0.00 | 64 | 1030.1 |
| 20260901131734 | 71 | 180 | 6.0 | 10.0 | 0.00 | 0.00 | 0.00 | 64 | 1030.1 |
| 20260901130737 | 72 | 166 | 8.0 | 13.0 | 0.00 | 0.00 | 0.00 | 64 | 1030.2 |
| 20260901125736 | 72 | 149 | 9.0 | 16.0 | 0.00 | 0.00 | 0.00 | 66 | 1030.2 |
| 20260901124835 | 72 | 152 | 9.0 | 15.0 | 0.00 | 0.00 | 0.00 | 67 | 1030.3 |
| 20260901123837 | 73 | 152 | 4.0 | 6.0 | 0.00 | 0.00 | 0.00 | 67 | 1030.1 |
| 20260901123737 | 73 | 155 | 7.0 | 10.0 | 0.00 | 0.00 | 0.00 | 68 | 1030.1 |
| 20260901122834 | 72 | 137 | 6.0 | 12.0 | 0.00 | 0.00 | 0.00 | 74 | 1030.1 |
| 20260901121853 | 69 | 155 | 6.0 | 9.0 | 0.00 | 0.00 | 0.00 | 75 | 1030.1 |
| 20260901120836 | 70 | 152 | 7.0 | 11.0 | 0.00 | 0.00 | 0.00 | 76 | 1030.1 |
| 20260901115935 | 71 | 177 | 6.0 | 10.0 | 0.00 | 0.00 | 0.00 | 79 | 1030.1 |
| 20260901114937 | 70 | 155 | 9.0 | 12.0 | 0.00 | 0.00 | 0.00 | 83 | 1030.1 |
| 20260901114035 | 68 | 152 | 4.0 | 7.0 | 0.00 | 0.00 | 0.00 | 85 | 1030.2 |
| 20260901113035 | 67 | 149 | 5.0 | 9.0 | 0.00 | 0.00 | 0.00 | 90 | 1030.3 |
| 20260901112937 | 67 | 135 | 6.0 | 8.0 | 0.00 | 0.00 | 0.00 | 90 | 1030.3 |
| 20260901111936 | 66 | 166 | 2.0 | 5.0 | 0.00 | 0.00 | 0.00 | 93 | 1030.4 |
| 20260901110934 | 65 | 180 | 3.0 | 5.0 | 0.00 | 0.00 | 0.00 | 94 | 1030.4 |
| 20260901105935 | 64 | 180 | 4.0 | 8.0 | 0.00 | 0.00 | 0.00 | 95 | 1030.3 |
| 20260901105034 | 63 | 140 | 6.0 | 9.0 | 0.00 | 0.00 | 0.00 | 96 | 1030.4 |
| 20260901104036 | 63 | 121 | 2.0 | 3.0 | 0.00 | 0.00 | 0.00 | 95 | 1030.4 |
| 20260901103037 | 62 | 131 | 1.0 | 2.0 | 0.00 | 0.00 | 0.00 | 95 | 1030.2 |
| 20260901100036 | 64 | 165 | 5.0 | 8.0 | 0.00 | 0.00 | 0.00 | 95 | 1030.3 |
| 20260901095037 | 64 | 165 | 3.0 | 7.0 | 0.00 | 0.00 | 0.00 | 96 | 1030.1 |
| 20260901094134 | 63 | 118 | 7.0 | 10.0 | 0.00 | 0.00 | 0.00 | 97 | 1030.1 |
| 20260901094034 | 63 | 118 | 5.0 | 7.0 | 0.00 | 0.00 | 0.00 | 97 | 1030.1 |
| 20260901093935 | 63 | 124 | 5.0 | 8.0 | 0.00 | 0.00 | 0.00 | 97 | 1030.1 |
| 20260901092934 | 62 | 132 | 3.0 | 5.0 | 0.00 | 0.00 | 0.00 | 97 | 1030.1 |
| 20260901092034 | 62 | 121 | 3.0 | 5.0 | 0.00 | 0.00 | 0.00 | 96 | 1030.1 |
| 20260901091937 | 62 | 114 | 5.0 | 8.0 | 0.00 | 0.00 | 0.00 | 96 | 1030.1 |
| 20260901091035 | 61 | 124 | 1.0 | 4.0 | 0.00 | 0.00 | 0.00 | 96 | 1030.1 |
| 20260901090038 | 61 | 158 | 3.0 | 6.0 | 0.00 | 0.00 | 0.00 | 95 | 1030.1 |
| 20260901085036 | 61 | 118 | 3.0 | 4.0 | 0.00 | 0.00 | 0.00 | 95 | 1029.9 |
| 20260901084134 | 60 | 132 | 3.0 | 4.0 | 0.00 | 0.00 | 0.00 | 96 | 1030.0 |
| 20260901082136 | 60 | 112 | 2.0 | 4.0 | 0.00 | 0.00 | 0.00 | 95 | 1029.8 |
| 20260901081136 | 60 | 125 | 4.0 | 9.0 | 0.00 | 0.00 | 0.00 | 96 | 1029.6 |
| 20260901080135 | 61 | 126 | 2.0 | 4.0 | 0.00 | 0.00 | 0.00 | 96 | 1029.5 |
| 20260901080035 | 61 | 112 | 3.0 | 4.0 | 0.00 | 0.00 | 0.00 | 96 | 1029.5 |
| 20260901075035 | 61 | 120 | 7.0 | 10.0 | 0.00 | 0.00 | 0.00 | 96 | 1029.6 |
| 20260901074036 | 61 | 115 | 3.0 | 5.0 | 0.00 | 0.00 | 0.00 | 96 | 1029.3 |
| 20260901073934 | 61 | 116 | 4.0 | 7.0 | 0.00 | 0.00 | 0.00 | 96 | 1029.3 |
| 20260901072936 | 61 | 112 | 1.0 | 2.0 | 0.00 | 0.00 | 0.00 | 95 | 1029.3 |
| 20260901072035 | 61 | 120 | 5.0 | 8.0 | 0.00 | 0.00 | 0.00 | 96 | 1029.3 |
| 20260901070136 | 60 | 129 | 4.0 | 9.0 | 0.00 | 0.00 | 0.00 | 96 | 1029.2 |